Hourly Weather Abaliget

Today, 25 July, Sunday

Time Temperature Precipitation Wind Pressure Humidity
00:00 +20°C° 0.1 mm 3 mps 743 mmHg 64%
01:00 +20°C° 0.1 mm 3 mps 743 mmHg 68%
02:00 +19°C° 0 mm 3 mps 743 mmHg 69%
03:00 +19°C° 0 mm 3 mps 743 mmHg 70%
04:00 +18°C° 0 mm 2 mps 743 mmHg 71%
05:00 +20°C° 0 mm 2 mps 743 mmHg 67%
06:00 +21°C° 0 mm 2 mps 743 mmHg 62%
07:00 +24°C° 0 mm 2 mps 743 mmHg 57%
08:00 +26°C° 0 mm 2 mps 743 mmHg 51%
09:00 +29°C° 0 mm 2 mps 743 mmHg 44%
10:00 +32°C° 0 mm 2 mps 743 mmHg 38%
11:00 +34°C° 0 mm 2 mps 743 mmHg 35%
12:00 +36°C° 0 mm 3 mps 743 mmHg 31%
13:00 +37°C° 0 mm 3 mps 742 mmHg 28%
14:00 +37°C° 0 mm 3 mps 742 mmHg 28%
15:00 +38°C° 0 mm 3 mps 742 mmHg 27%
16:00 +38°C° 0 mm 3 mps 742 mmHg 27%
17:00 +36°C° 0 mm 3 mps 742 mmHg 33%
18:00 +33°C° 0 mm 3 mps 741 mmHg 40%
19:00 +30°C° 0 mm 3 mps 741 mmHg 46%
20:00 +28°C° 0 mm 3 mps 741 mmHg 50%
21:00 +27°C° 0 mm 2 mps 742 mmHg 54%
22:00 +25°C° 0 mm 2 mps 742 mmHg 59%
23:00 +24°C° 0 mm 2 mps 742 mmHg 61%

Tomorrow, 26 July, Monday

Time Temperature Precipitation Wind Pressure Humidity
00:00 +24°C° 0 mm 1 mps 742 mmHg 63%
01:00 +23°C° 0 mm 1 mps 742 mmHg 66%
02:00 +22°C° 0 mm 1 mps 742 mmHg 68%
03:00 +22°C° 0 mm 1 mps 742 mmHg 70%
04:00 +21°C° 0 mm 1 mps 742 mmHg 73%
05:00 +23°C° 0 mm 1 mps 743 mmHg 68%
06:00 +24°C° 0 mm 2 mps 743 mmHg 63%
07:00 +26°C° 0 mm 2 mps 743 mmHg 58%
08:00 +28°C° 0 mm 2 mps 744 mmHg 50%
09:00 +31°C° 0 mm 3 mps 744 mmHg 42%
10:00 +34°C° 0 mm 3 mps 744 mmHg 34%
11:00 +36°C° 0 mm 5 mps 744 mmHg 30%
12:00 +38°C° 0 mm 6 mps 744 mmHg 27%
13:00 +39°C° 0 mm 7 mps 744 mmHg 24%
14:00 +39°C° 0 mm 6 mps 744 mmHg 24%
15:00 +39°C° 0 mm 6 mps 743 mmHg 23%
16:00 +39°C° 0 mm 6 mps 743 mmHg 23%
17:00 +36°C° 0 mm 5 mps 743 mmHg 28%
18:00 +33°C° 0 mm 3 mps 743 mmHg 33%
19:00 +30°C° 0 mm 2 mps 743 mmHg 37%
20:00 +29°C° 0 mm 2 mps 744 mmHg 41%
21:00 +27°C° 0 mm 2 mps 744 mmHg 45%
22:00 +26°C° 0 mm 2 mps 745 mmHg 48%
23:00 +26°C° 0 mm 2 mps 744 mmHg 51%

Day after tomorrow, 27 July, Tuesday

Time Temperature Precipitation Wind Pressure Humidity
00:00 +25°C° 0 mm 2 mps 744 mmHg 54%
01:00 +25°C° 0 mm 1 mps 744 mmHg 56%
02:00 +24°C° 0 mm 1 mps 744 mmHg 58%
03:00 +23°C° 0 mm 1 mps 744 mmHg 60%
04:00 +23°C° 0 mm 1 mps 744 mmHg 63%
05:00 +25°C° 0 mm 2 mps 744 mmHg 57%
06:00 +26°C° 0 mm 3 mps 745 mmHg 52%
07:00 +28°C° 0 mm 3 mps 745 mmHg 47%
08:00 +30°C° 0 mm 4 mps 745 mmHg 43%
09:00 +33°C° 0 mm 5 mps 745 mmHg 38%
10:00 +34°C° 0 mm 6 mps 746 mmHg 34%
11:00 +35°C° 0 mm 6 mps 745 mmHg 32%
12:00 +36°C° 0 mm 6 mps 745 mmHg 30%
13:00 +38°C° 0 mm 7 mps 745 mmHg 27%
14:00 +38°C° 0 mm 7 mps 745 mmHg 26%
15:00 +38°C° 0 mm 7 mps 745 mmHg 25%
16:00 +39°C° 0 mm 7 mps 745 mmHg 24%
17:00 +36°C° 0 mm 6 mps 744 mmHg 28%
18:00 +34°C° 0 mm 4 mps 744 mmHg 32%
19:00 +31°C° 0 mm 3 mps 744 mmHg 36%
20:00 +29°C° 0 mm 3 mps 744 mmHg 40%
21:00 +28°C° 0 mm 3 mps 744 mmHg 43%
22:00 +26°C° 0 mm 2 mps 745 mmHg 47%
23:00 +26°C° 0 mm 2 mps 745 mmHg 50%

28 July, Wednesday

Time Temperature Precipitation Wind Pressure Humidity
00:00 +25°C° 0 mm 2 mps 745 mmHg 52%
01:00 +24°C° 0 mm 2 mps 745 mmHg 55%
02:00 +24°C° 0 mm 2 mps 745 mmHg 56%
03:00 +24°C° 0 mm 1 mps 745 mmHg 57%
04:00 +23°C° 0 mm 1 mps 745 mmHg 57%
05:00 +25°C° 0 mm 1 mps 745 mmHg 55%
06:00 +26°C° 0 mm 1 mps 745 mmHg 52%
07:00 +28°C° 0 mm 1 mps 745 mmHg 50%
08:00 +30°C° 0 mm 1 mps 745 mmHg 44%
09:00 +32°C° 0 mm 1 mps 745 mmHg 39%
10:00 +34°C° 0 mm 1 mps 745 mmHg 33%
11:00 +37°C° 0 mm 2 mps 745 mmHg 30%
12:00 +38°C° 0 mm 2 mps 744 mmHg 27%
13:00 +39°C° 0 mm 3 mps 744 mmHg 23%
14:00 +40°C° 0 mm 4 mps 744 mmHg 23%
15:00 +40°C° 0 mm 5 mps 744 mmHg 22%
16:00 +40°C° 0 mm 5 mps 744 mmHg 22%
17:00 +37°C° 0 mm 5 mps 744 mmHg 28%
18:00 +34°C° 0 mm 4 mps 744 mmHg 34%
19:00 +32°C° 0 mm 4 mps 744 mmHg 40%
20:00 +29°C° 0 mm 3 mps 744 mmHg 45%
21:00 +27°C° 0 mm 3 mps 745 mmHg 51%
22:00 +25°C° 0 mm 3 mps 745 mmHg 56%
23:00 +24°C° 0.1 mm 2 mps 745 mmHg 63%

29 July, Thursday

Time Temperature Precipitation Wind Pressure Humidity
00:00 +23°C° 0.1 mm 2 mps 745 mmHg 69%
01:00 +21°C° 0.1 mm 2 mps 745 mmHg 75%
02:00 +21°C° 0 mm 2 mps 745 mmHg 77%
03:00 +20°C° 0 mm 2 mps 745 mmHg 79%
04:00 +21°C° 0 mm 1 mps 745 mmHg 81%
05:00 +22°C° 0 mm 1 mps 746 mmHg 74%
06:00 +24°C° 0 mm 1 mps 746 mmHg 66%
07:00 +26°C° 0 mm 1 mps 746 mmHg 59%
08:00 +28°C° 0 mm 1 mps 746 mmHg 51%
09:00 +31°C° 0 mm 1 mps 746 mmHg 43%
10:00 +31°C° 0 mm 0 mps 746 mmHg 36%
11:00 +35°C° 0 mm 1 mps 745 mmHg 33%
12:00 +36°C° 0 mm 1 mps 745 mmHg 30%
13:00 +37°C° 0 mm 1 mps 745 mmHg 28%
14:00 +37°C° 0 mm 1 mps 744 mmHg 27%
15:00 +39°C° 0 mm 1 mps 744 mmHg 25%
16:00 +39°C° 0 mm 2 mps 743 mmHg 24%
17:00 +37°C° 0 mm 2 mps 743 mmHg 28%
18:00 +34°C° 0 mm 1 mps 743 mmHg 32%
19:00 +32°C° 0 mm 1 mps 743 mmHg 36%
20:00 +30°C° 0 mm 1 mps 743 mmHg 39%
21:00 +29°C° 0 mm 1 mps 743 mmHg 43%
22:00 +27°C° 0 mm 1 mps 743 mmHg 46%
23:00 +27°C° 0 mm 1 mps 743 mmHg 47%

30 July, Friday

Time Temperature Precipitation Wind Pressure Humidity
00:00 +26°C° 0 mm 1 mps 743 mmHg 48%
01:00 +26°C° 0 mm 1 mps 743 mmHg 49%
02:00 +25°C° 0 mm 1 mps 743 mmHg 51%
03:00 +23°C° 0 mm 0 mps 743 mmHg 53%
04:00 +23°C° 0 mm 0 mps 743 mmHg 54%
05:00 +24°C° 0 mm 0 mps 743 mmHg 50%
06:00 +26°C° 0 mm 0 mps 743 mmHg 46%
07:00 +28°C° 0 mm 0 mps 743 mmHg 41%
08:00 +33°C° 0 mm 1 mps 743 mmHg 37%
09:00 +35°C° 0 mm 1 mps 743 mmHg 32%
10:00 +37°C° 0 mm 1 mps 743 mmHg 27%
11:00 +39°C° 0 mm 1 mps 743 mmHg 25%
12:00 +40°C° 0 mm 2 mps 742 mmHg 22%
13:00 +41°C° 0 mm 2 mps 742 mmHg 20%
14:00 +42°C° 0 mm 3 mps 741 mmHg 20%
15:00 +42°C° 0 mm 3 mps 741 mmHg 19%
16:00 +42°C° 0 mm 3 mps 740 mmHg 19%
17:00 +39°C° 0 mm 3 mps 740 mmHg 22%
18:00 +37°C° 0 mm 3 mps 740 mmHg 26%
19:00 +35°C° 0 mm 3 mps 741 mmHg 30%
20:00 +30°C° 0 mm 3 mps 741 mmHg 43%
21:00 +27°C° 0 mm 3 mps 742 mmHg 56%
22:00 +24°C° 0 mm 3 mps 742 mmHg 69%
23:00 +22°C° 0 mm 3 mps 742 mmHg 71%
Show more